GFSNE_con_3kmhel_252.txt.gz
Helicity
53 60 61 54 51 36 40 39 49 77 94 122 155 149 127 126 115 102 107 113 126 117 93 86 115 125 127 157 167 155 146 131 142 142 143 137 139 140
45 51 44 57 61 47 40 32 44 48 67 97 89 92 105 92 93 101 109 123 135 96 96 124 126 125 129 147 168 157 123 129 142 129 142 136 134 144
53 41 35 39 49 60 58 59 62 46 63 75 79 83 81 90 111 100 99 105 142 156 122 122 133 134 115 112 146 158 153 128 105 92 141 140 148 186
52 53 42 56 74 74 79 77 60 63 61 62 56 58 81 100 123 120 93 92 149 188 189 186 146 97 116 124 138 120 106 97 95 81 137 144 124 131
60 57 63 69 79 93 90 76 70 64 65 63 56 48 70 77 81 65 72 71 91 119 118 152 157 158 113 114 132 108 84 96 102 94 110 158 179 193
74 85 96 91 98 102 93 82 77 65 59 65 58 76 74 66 61 71 79 67 89 91 106 124 145 136 127 114 122 116 85 89 94 97 103 114 126 133
97 104 114 99 93 106 83 69 62 66 66 54 76 75 71 68 61 52 61 55 59 75 76 84 70 86 96 100 79 68 76 86 81 83 84 88 86 91
103 100 92 92 103 95 75 76 65 59 54 61 75 69 63 51 44 40 42 51 56 67 60 56 71 78 67 66 77 88 94 85 81 81 78 80 77 73
92 84 84 87 82 66 48 77 94 115 113 72 77 76 56 53 35 37 41 46 45 46 52 48 50 52 52 67 78 102 98 88 86 82 80 78 76 77
83 72 67 68 67 49 64 81 85 109 106 83 69 62 43 31 33 34 39 40 38 61 67 72 65 57 58 61 82 90 88 87 82 80 79 78 90 103
71 70 65 68 74 54 82 86 83 98 92 83 75 80 90 96 87 46 57 54 52 62 83 70 72 64 60 70 57 71 69 67 72 72 85 93 103 105
61 73 77 82 80 71 71 71 86 77 66 58 56 65 69 75 100 70 55 63 64 74 68 72 77 75 74 79 68 80 72 76 82 92 97 92 84 65
50 74 75 88 94 102 106 85 68 70 73 60 57 57 55 59 59 61 64 60 56 68 66 73 77 88 91 80 81 99 85 74 76 83 95 97 100 87
70 75 84 105 122 138 118 104 91 80 66 61 60 56 54 55 50 49 56 63 73 73 83 93 82 92 94 90 90 97 98 93 87 95 85 89 95 90
77 68 95 113 128 112 98 87 81 68 60 58 58 55 52 50 54 45 51 67 81 86 95 103 99 85 85 73 76 87 102 103 90 85 101 92 89 84
56 60 72 95 99 91 81 76 67 61 62 61 60 60 57 54 60 65 68 72 86 101 88 77 59 55 52 54 68 57 61 69 71 61 86 100 93 73
24 55 51 68 96 93 71 60 63 66 71 67 71 67 64 62 65 72 86 102 93 61 43 41 57 55 64 84 64 53 56 65 45 57 66 98 104 85
49 38 39 65 85 89 60 53 62 66 63 70 78 75 74 74 74 83 101 94 70 48 45 39 48 59 59 42 47 57 60 59 87 86 71 70 117 132
66 68 55 72 92 94 76 71 75 72 72 79 85 90 90 90 90 89 92 72 51 43 39 35 44 55 69 82 48 19 61 101 88 102 83 84 88 135
95 88 90 72 90 100 89 90 89 74 75 83 92 99 108 99 99 93 67 42 35 38 48 51 49 53 65 68 90 146 45 65 88 92 106 97 93 61
96 92 105 86 88 98 95 92 84 73 82 97 104 111 112 114 108 77 41 34 42 44 49 50 48 23 60 80 87 96 146 92 47 74 78 71 84 103
128 104 111 93 90 105 108 100 84 80 104 105 102 107 109 111 70 36 37 37 40 45 47 49 50 58 74 80 78 94 112 153 104 74 34 18 54 79
85 117 134 111 108 109 106 102 98 108 112 117 112 111 120 79 56 41 34 37 47 50 53 60 68 78 76 80 58 86 115 99 95 109 130 25 22 -1

GFSNE_con_3kmhel_255.txt.gz
Helicity
70 65 68 60 48 46 45 46 38 52 74 107 134 158 164 129 113 123 102 109 132 99 91 88 113 114 104 119 144 170 154 155 111 114 140 121 129 135
70 65 59 60 73 72 67 62 57 62 84 103 112 125 143 115 129 127 123 124 171 121 101 105 115 117 108 113 134 154 170 147 113 115 117 98 165 207
92 49 59 60 65 72 74 82 83 84 93 94 118 125 136 102 122 112 111 120 142 149 108 101 114 98 95 105 123 115 95 100 110 100 96 110 117 141
124 102 82 59 64 75 83 89 92 94 89 75 74 84 93 95 83 109 97 89 131 167 158 113 75 114 109 98 98 88 88 103 98 91 136 238 212 206
120 95 80 74 58 79 92 94 85 87 80 70 70 61 58 67 74 87 76 77 80 92 101 158 128 109 100 93 92 105 106 77 68 86 110 139 142 144
96 72 83 77 72 77 89 103 86 77 75 68 64 72 79 77 81 76 81 72 77 77 95 108 115 137 102 81 75 85 89 83 96 82 77 93 109 115
88 91 85 87 89 113 102 92 74 71 79 67 66 76 91 88 71 59 62 67 73 71 70 83 85 80 73 92 81 75 75 72 75 76 73 81 86 87
78 81 89 63 96 112 110 89 69 67 63 66 68 76 70 61 50 50 53 56 53 60 56 51 60 70 72 70 80 91 87 86 83 79 78 78 79 78
72 87 98 82 97 87 99 96 100 111 97 70 74 58 56 54 42 42 38 42 40 41 44 47 51 53 51 65 77 95 99 88 82 79 75 72 75 85
79 92 88 73 72 85 87 94 101 98 102 92 79 67 46 30 31 33 43 47 41 60 54 54 60 58 68 71 79 84 82 80 75 71 70 71 78 90
75 82 75 66 67 81 81 91 96 103 89 89 88 92 99 106 68 40 49 50 50 57 70 62 68 58 71 79 77 76 90 74 82 88 93 95 96 101
72 83 67 63 81 63 75 75 78 56 52 62 74 91 87 81 95 63 42 51 58 65 61 63 70 72 73 91 98 107 100 92 95 116 118 119 122 87
57 72 74 85 63 52 66 70 63 55 62 71 68 59 58 58 57 58 67 58 56 66 60 74 81 92 101 95 102 112 97 86 93 101 112 114 120 102
47 46 61 68 76 88 91 86 78 74 69 68 62 57 54 56 53 52 62 75 90 79 92 98 90 100 109 100 89 86 85 78 79 98 88 90 92 92
35 40 71 86 92 101 90 82 81 67 64 64 61 59 55 48 47 47 62 79 94 100 106 104 88 66 62 48 44 51 57 66 61 33 49 61 65 71
42 51 56 61 72 82 89 90 73 59 55 62 66 64 59 54 63 59 70 81 95 97 91 76 50 48 47 48 66 62 56 57 47 36 49 69 74 60
55 66 49 32 35 62 78 76 67 62 67 68 72 72 68 61 68 78 90 99 99 78 54 59 58 42 37 60 58 51 62 55 44 47 37 75 102 79
55 39 21 3 25 53 69 69 61 63 69 78 79 80 78 72 81 92 95 87 85 58 50 42 47 67 73 57 46 65 70 67 76 78 64 65 116 143
75 65 39 16 35 66 78 81 73 60 70 79 88 87 88 84 94 85 76 85 76 59 52 52 50 63 77 93 68 61 62 87 85 113 103 102 104 133
130 86 68 36 45 71 82 93 83 80 77 86 93 91 93 103 105 99 82 69 49 45 50 51 53 57 60 74 98 143 54 73 98 109 123 108 96 64
126 115 79 77 46 62 87 101 92 80 81 88 90 99 104 117 120 107 76 53 46 38 45 50 41 28 57 82 85 113 123 68 50 81 93 99 94 98
91 100 90 75 78 61 87 110 96 74 86 85 93 99 109 125 108 66 49 41 35 39 44 43 42 53 63 79 94 107 125 137 88 55 53 34 60 73
93 93 86 96 106 78 96 112 93 85 88 94 96 98 116 129 83 54 40 31 39 39 45 54 64 68 72 82 65 95 106 117 80 74 111 62 47 46

GFSNE_con_3kmhel_258.txt.gz
Helicity
104 100 87 77 69 55 54 47 46 62 76 106 110 135 130 125 116 117 119 141 143 117 104 124 131 129 144 159 162 164 179 184 183 167 112 101 129 144
106 98 79 66 79 49 54 59 63 65 78 101 110 114 140 116 140 130 128 146 183 123 106 102 112 111 108 128 118 132 137 129 157 144 123 85 80 114
116 84 87 91 79 82 85 86 77 77 76 101 124 130 127 119 125 113 121 131 146 164 97 103 108 117 125 118 103 106 100 94 102 114 151 220 244 255
121 138 148 105 90 77 79 83 91 97 90 91 100 108 114 110 104 98 105 92 118 156 157 88 115 119 91 87 86 90 87 86 88 107 129 146 177 172
122 137 133 130 100 83 64 72 91 102 94 96 97 97 87 67 65 58 88 94 86 118 121 159 105 83 83 78 81 85 88 99 85 87 88 116 131 132
102 115 106 100 80 71 64 85 89 85 81 85 86 88 78 73 70 75 78 80 78 90 114 122 125 121 90 83 70 63 91 96 88 90 89 103 110 110
121 102 103 99 78 79 84 92 81 82 82 76 72 81 75 79 82 74 71 66 71 68 62 74 72 74 68 70 69 81 82 79 91 96 96 94 91 85
85 91 96 74 69 89 106 100 81 74 70 66 68 65 69 70 59 59 61 56 50 54 51 55 59 56 56 61 79 85 82 80 86 89 85 82 80 81
76 78 71 80 89 98 122 105 94 104 81 61 65 58 56 51 48 48 48 46 43 39 44 51 56 56 56 71 73 93 91 89 88 86 79 73 71 73
63 57 64 83 85 111 98 95 101 104 107 101 83 65 46 28 33 37 44 59 50 57 52 55 63 64 71 76 90 89 85 83 92 93 89 82 77 80
54 63 67 80 75 97 98 86 100 106 96 99 93 95 95 96 46 50 57 59 49 55 68 61 65 59 69 82 105 126 121 112 98 101 93 89 86 84
60 54 70 65 63 87 85 75 84 73 83 76 71 85 89 93 110 73 44 53 57 58 58 59 66 69 71 101 117 130 123 126 122 128 117 107 100 80
49 63 92 67 92 65 55 63 58 62 65 66 65 66 62 67 71 70 74 57 55 63 54 61 71 81 93 90 108 124 116 101 96 88 85 81 84 80
34 46 49 66 66 54 62 58 74 81 72 63 58 56 60 61 61 64 69 75 85 72 81 84 76 89 104 101 82 71 55 57 57 42 42 41 43 49
35 32 62 72 77 95 98 91 86 79 69 61 57 58 57 54 54 59 68 75 82 85 85 82 83 79 72 54 44 58 60 63 54 20 36 45 42 55
40 55 60 67 79 95 96 92 86 71 61 59 59 65 63 68 69 54 59 64 65 63 63 71 59 55 49 52 61 48 42 48 34 28 36 68 76 51
75 66 51 51 55 55 58 66 82 82 72 65 75 75 73 71 71 66 67 75 72 50 50 65 54 56 43 54 61 49 58 51 53 54 54 85 114 77
63 49 34 26 31 40 43 54 65 69 72 78 86 85 81 80 79 77 81 81 67 56 66 59 62 55 69 54 55 62 58 67 86 88 68 74 123 142
62 53 51 44 39 49 51 70 67 63 68 87 87 90 96 77 81 81 86 79 70 79 76 53 67 62 75 82 51 48 70 88 101 123 116 116 118 136
116 80 66 64 59 52 58 78 87 79 76 86 91 90 89 95 94 92 81 85 71 47 44 43 44 46 65 66 75 90 37 86 109 116 128 125 107 37
111 115 98 96 90 62 54 77 96 90 80 82 87 91 95 105 106 102 100 66 51 42 35 34 39 32 56 70 84 85 105 68 59 80 98 93 81 78
90 103 107 110 104 91 63 78 97 85 94 77 80 91 102 113 112 117 98 67 49 41 33 30 32 49 69 87 96 102 100 95 86 59 63 80 125 109
88 93 101 109 117 109 83 82 94 98 97 82 84 96 121 122 120 107 56 48 42 32 31 38 52 59 68 87 74 92 89 88 76 64 88 63 75 69

GFSNE_con_3kmhel_264.txt.gz
Helicity
114 114 114 95 89 89 84 78 104 100 106 82 110 134 128 125 118 109 113 155 140 138 104 87 99 120 140 147 145 137 135 141 144 172 193 222 228 200
142 117 98 92 86 98 84 78 75 64 77 91 130 127 113 112 114 105 127 154 176 133 88 98 103 108 142 144 126 131 140 120 111 114 153 164 220 245
164 190 171 68 67 92 94 100 76 67 96 112 140 108 117 98 109 125 133 152 164 182 114 99 138 144 133 137 127 126 124 134 132 140 137 158 201 216
178 240 264 94 100 71 85 97 91 56 114 133 149 126 123 124 127 132 121 133 145 188 143 176 147 130 111 110 100 79 105 111 104 113 112 118 127 124
160 200 204 226 149 97 101 80 87 99 104 116 126 142 129 113 127 127 107 102 111 133 197 174 135 116 94 83 88 117 129 115 101 88 91 95 97 100
192 194 194 229 226 124 135 115 105 98 95 89 105 128 141 122 105 97 103 94 107 112 145 151 136 101 87 76 81 97 109 107 102 82 85 91 95 97
152 125 114 137 158 131 127 104 99 94 81 80 108 130 124 109 89 84 95 98 109 96 85 94 82 76 77 70 73 85 92 84 83 86 86 86 85 82
102 100 114 136 138 136 139 108 85 75 77 97 113 112 102 90 77 76 83 76 71 70 60 59 61 65 76 76 77 74 86 71 78 81 82 79 75 73
69 84 93 93 104 114 122 119 114 103 77 83 93 93 85 66 64 67 69 67 59 46 43 56 57 60 65 80 70 90 74 67 76 80 76 70 67 67
43 42 55 78 110 113 100 96 96 107 106 107 103 80 61 49 42 39 46 67 56 58 45 57 58 66 70 89 115 88 94 93 90 91 83 77 75 78
81 89 88 97 65 74 88 90 108 134 125 136 131 122 85 69 53 56 64 61 59 57 64 54 58 62 78 97 130 142 127 117 118 107 97 89 85 91
68 56 47 39 47 65 75 79 86 75 90 111 121 121 114 106 98 67 51 54 52 51 52 55 61 68 75 84 94 117 115 134 125 125 107 76 58 38
64 63 49 25 47 55 65 70 69 69 88 96 94 89 94 102 100 86 73 54 55 55 43 55 54 57 68 69 81 99 105 85 65 49 59 53 51 41
78 65 75 7 66 68 59 57 69 88 86 83 74 76 78 77 80 85 94 100 94 66 54 46 48 53 59 70 73 83 61 52 46 43 37 29 31 38
67 60 47 117 86 57 45 46 73 82 79 67 69 69 63 54 60 71 80 81 78 68 61 55 47 52 69 61 63 49 42 31 32 32 45 37 37 40
92 56 46 66 103 96 90 84 68 65 63 69 71 71 61 61 59 55 62 55 55 51 49 59 58 62 59 56 53 36 35 40 39 45 59 56 26 22
113 65 49 56 68 68 67 64 67 71 72 70 76 74 73 71 70 64 64 58 57 42 45 56 68 76 57 51 49 31 35 39 47 43 49 79 52 46
106 65 36 31 33 33 39 46 53 60 70 76 83 87 83 78 81 77 74 64 56 46 54 62 80 71 64 37 27 39 40 40 47 48 38 61 86 85
87 73 56 44 33 28 34 44 44 55 68 74 81 91 92 82 84 85 79 62 53 58 63 64 50 38 41 37 24 13 38 43 48 56 53 54 67 78
71 72 61 43 37 31 39 49 59 72 78 78 86 90 90 97 95 82 64 58 53 56 66 38 38 20 24 16 16 18 11 52 65 63 65 69 87 26
66 73 69 52 44 42 50 63 76 80 79 86 82 89 92 101 87 75 63 62 76 70 45 33 26 31 26 31 36 28 46 30 40 88 88 91 82 92
67 82 84 70 70 73 76 83 83 74 97 91 83 84 90 90 89 79 68 83 92 69 28 31 29 27 33 41 36 49 57 57 51 61 64 103 159 118
86 85 75 72 73 83 102 111 103 93 101 101 92 87 99 93 79 84 87 97 102 58 33 35 26 29 32 42 38 49 46 39 45 64 118 56 72 62